Weather History for Delaware, OH

Change the Weather History Date:

Monday, July 8, 2013

  Actual Average Record
Temperature  
Mean Temperature 70 °F -  
Max Temperature 78 °F 84 °F 104 °F (1936)
Min Temperature 62 °F 60 °F 48 °F (1954)
Cooling Degree Days 5    
Growing Degree Days 20 (Base 50)    
Moisture  
Dew Point 67 °F    
Average Humidity 89    
Maximum Humidity 100    
Minimum Humidity 74    
Precipitation  
Precipitation 0.79 in - - ()
Sea Level Pressure  
Sea Level Pressure 30.11 in    
Wind  
Wind Speed 2 mph (SSW)    
Max Wind Speed 10 mph    
Max Gust Speed 23 mph    
Visibility 8 miles    
Events Rain , Thunderstorm    
Averages and records for this station are not official NWS values.
T = Trace of Precipitation, MM = Missing Value Source: NWS Daily Summary

Daily Weather History Graph

Daily Weather History Graph

Search for Another Location

Airport:

Trip Planner

Search our weather history database for the weather conditions in past years. The results will help you decide how hot, cold, wet, or windy it might be!

Date:

Astronomy

Jul. 08, 2013 Rise Set
Actual Time 6:10 AM EDT 9:04 PM EDT
Civil Twilight 5:38 AM EDT 9:36 PM EDT
Nautical Twilight 4:56 AM EDT 10:17 PM EDT
Astronomical Twilight 4:09 AM EDT 11:05 PM EDT
Moon 6:38 AM EDT (7/8) 9:05 PM EDT (7/8)
Length of Visible Light 15h 58m
Length of Day
14h 53m
New Moon, 0% of the Moon is Illuminated
Jul 8
New Moon
Jul 15
First Quarter
Jul 22
Full
Jul 29
Last Quarter
Aug 6
New

Hourly Weather History & Observations

Time (EDT) Temp. Dew Point Humidity Pressure Visibility Wind Dir Wind Speed Gust Speed Precip Events Conditions
12:17 AM 62.6 °F 60.8 °F 94% 30.10 in 5.0 mi Calm Calm - N/A   Scattered Clouds
12:37 AM 62.6 °F 60.8 °F 94% 30.10 in 7.0 mi Calm Calm - N/A   Mostly Cloudy
12:56 AM 62.6 °F 62.6 °F 100% 30.10 in 7.0 mi Calm Calm - N/A   Overcast
1:17 AM 62.6 °F 62.6 °F 100% 30.10 in 7.0 mi Calm Calm - N/A   Overcast
1:37 AM 62.6 °F 62.6 °F 100% 30.10 in 7.0 mi Calm Calm - N/A Thunderstorm Scattered Clouds
1:56 AM 62.6 °F 62.6 °F 100% 30.11 in 10.0 mi Calm Calm - N/A Thunderstorm Mostly Cloudy
2:17 AM 62.6 °F 62.6 °F 100% 30.12 in 10.0 mi NNE 10.4 mph 18.4 mph N/A Thunderstorm Overcast
2:37 AM 64.4 °F 60.8 °F 88% 30.12 in 5.0 mi ESE 4.6 mph - 0.03 in Rain , Thunderstorm Thunderstorms and Rain
2:57 AM 62.6 °F 60.8 °F 94% 30.13 in - NNE 4.6 mph - 0.05 in Thunderstorm Thunderstorm
3:16 AM 62.6 °F 62.6 °F 100% 30.11 in 10.0 mi SE 3.5 mph - 0.04 in Rain , Thunderstorm Thunderstorms and Rain
3:36 AM 64.4 °F 62.6 °F 94% 30.13 in 10.0 mi NW 10.4 mph - 0.08 in Rain Heavy Rain
3:57 AM 62.6 °F 62.6 °F 100% 30.10 in 10.0 mi SSW 3.5 mph - 0.38 in Rain Light Rain
4:17 AM 62.6 °F 62.6 °F 100% 30.11 in 10.0 mi Calm Calm - 0.01 in   Mostly Cloudy
4:36 AM 62.6 °F 60.8 °F 94% 30.10 in 10.0 mi Calm Calm - 0.01 in   Scattered Clouds
4:57 AM 62.6 °F 60.8 °F 94% 30.11 in 10.0 mi WNW 3.5 mph - 0.01 in   Clear
5:17 AM 62.6 °F 62.6 °F 100% 30.11 in 7.0 mi Calm Calm - N/A   Scattered Clouds
5:37 AM 62.6 °F 60.8 °F 94% 30.11 in 10.0 mi Calm Calm - N/A   Scattered Clouds
5:57 AM 62.6 °F 62.6 °F 100% 30.12 in 7.0 mi Calm Calm - N/A   Clear
6:16 AM 62.6 °F 62.6 °F 100% 30.12 in 7.0 mi Calm Calm - N/A   Scattered Clouds
6:37 AM 62.6 °F 62.6 °F 100% 30.12 in 5.0 mi Calm Calm - 0.01 in Rain Light Rain
6:57 AM 64.4 °F 62.6 °F 94% 30.12 in 5.0 mi SW 5.8 mph - 0.02 in Rain Rain
7:16 AM 64.4 °F 62.6 °F 94% 30.12 in 7.0 mi Calm Calm - 0.01 in   Light Drizzle
7:37 AM 64.4 °F 64.4 °F 100% 30.13 in 5.0 mi Calm Calm - 0.01 in   Light Drizzle
7:57 AM 66.2 °F 64.4 °F 94% 30.13 in 7.0 mi Calm Calm - 0.01 in   Overcast
8:16 AM 66.2 °F 64.4 °F 94% 30.13 in 7.0 mi Calm Calm - N/A   Overcast
8:37 AM 66.2 °F 64.4 °F 94% 30.14 in 10.0 mi Calm Calm - N/A Rain Light Rain
8:57 AM 66.2 °F 64.4 °F 94% 30.14 in 7.0 mi Calm Calm - N/A Rain Rain
9:16 AM 68.0 °F 64.4 °F 88% 30.14 in 10.0 mi Calm Calm - N/A Rain Light Rain
9:37 AM 69.8 °F 64.4 °F 83% 30.14 in 10.0 mi Calm Calm - 0.01 in   Scattered Clouds
9:57 AM 71.6 °F 66.2 °F 83% 30.15 in 10.0 mi SSE 4.6 mph - 0.01 in   Scattered Clouds
10:16 AM 71.6 °F 68.0 °F 88% 30.14 in 10.0 mi South 3.5 mph - N/A   Scattered Clouds
10:37 AM 73.4 °F 68.0 °F 83% 30.15 in 10.0 mi South 5.8 mph - N/A   Scattered Clouds
10:57 AM 73.4 °F 66.2 °F 78% 30.15 in 10.0 mi Calm Calm - N/A   Mostly Cloudy
11:16 AM 73.4 °F 68.0 °F 83% 30.15 in 10.0 mi SSW 3.5 mph - N/A Rain Light Rain
11:37 AM 71.6 °F 68.0 °F 88% 30.15 in 7.0 mi Calm Calm - 0.01 in Rain Rain
11:57 AM 71.6 °F 69.8 °F 94% 30.15 in 10.0 mi SSE 3.5 mph - 0.07 in Rain Light Rain
12:16 PM 73.4 °F 69.8 °F 88% 30.15 in 10.0 mi South 4.6 mph - N/A   Mostly Cloudy
12:37 PM 71.6 °F 68.0 °F 88% 30.15 in 10.0 mi South 4.6 mph - N/A   Overcast
12:57 PM 73.4 °F 69.8 °F 88% 30.14 in 10.0 mi South 5.8 mph - N/A   Mostly Cloudy
1:16 PM 77.0 °F 69.8 °F 78% 30.13 in 10.0 mi South 5.8 mph - N/A   Scattered Clouds
1:37 PM 77.0 °F 69.8 °F 78% 30.13 in 10.0 mi SSW 6.9 mph - N/A   Scattered Clouds
1:57 PM 77.0 °F 69.8 °F 78% 30.13 in 10.0 mi South 4.6 mph - N/A   Scattered Clouds
2:16 PM 78.8 °F 71.6 °F 78% 30.12 in 10.0 mi SSW 5.8 mph - N/A   Mostly Cloudy
2:37 PM 78.8 °F 69.8 °F 74% 30.11 in 10.0 mi South 5.8 mph - N/A   Mostly Cloudy
2:56 PM 77.0 °F 69.8 °F 78% 30.11 in 10.0 mi South 6.9 mph - N/A   Overcast
3:17 PM 78.8 °F 71.6 °F 78% 30.10 in 10.0 mi SSW 6.9 mph - N/A   Mostly Cloudy
3:37 PM 78.8 °F 71.6 °F 78% 30.10 in 10.0 mi SSW 8.1 mph - N/A   Scattered Clouds
3:56 PM 78.8 °F 69.8 °F 74% 30.10 in 10.0 mi SSW 6.9 mph - N/A   Clear
4:17 PM 78.8 °F 69.8 °F 74% 30.10 in 10.0 mi SSW 6.9 mph - N/A   Clear
4:37 PM 78.8 °F 69.8 °F 74% 30.10 in 1.8 mi SSW 10.4 mph 23.0 mph 0.09 in   Haze
4:56 PM 73.4 °F 69.8 °F 88% 30.08 in 10.0 mi SSW 4.6 mph - 0.13 in   Mostly Cloudy
5:17 PM 77.0 °F 71.6 °F 83% 30.08 in 7.0 mi Calm Calm - N/A   Scattered Clouds
5:37 PM 77.0 °F 71.6 °F 83% 30.07 in 7.0 mi South 3.5 mph - N/A   Clear
5:56 PM 77.0 °F 73.4 °F 89% 30.07 in 7.0 mi Calm Calm - N/A   Light Drizzle
6:17 PM 77.0 °F 73.4 °F 89% 30.06 in 7.0 mi Calm Calm - N/A   Scattered Clouds
6:37 PM 77.0 °F 71.6 °F 83% 30.06 in 10.0 mi South 4.6 mph - N/A   Scattered Clouds
6:56 PM 77.0 °F 71.6 °F 83% 30.07 in 7.0 mi Calm Calm - N/A Rain Rain
7:17 PM 77.0 °F 71.6 °F 83% 30.07 in 10.0 mi Calm Calm - N/A   Mostly Cloudy
7:37 PM 77.0 °F 71.6 °F 83% 30.08 in 10.0 mi Calm Calm - N/A   Mostly Cloudy
7:56 PM 77.0 °F 71.6 °F 83% 30.08 in 7.0 mi Calm Calm - N/A Rain Light Rain
8:17 PM 75.2 °F 71.6 °F 89% 30.09 in 5.0 mi Calm Calm - N/A Rain Rain
8:37 PM 73.4 °F 71.6 °F 94% 30.09 in 5.0 mi Calm Calm - 0.01 in Rain Rain
8:56 PM 73.4 °F 71.6 °F 94% 30.09 in 7.0 mi WSW 3.5 mph - 0.01 in   Drizzle
9:17 PM 73.4 °F 69.8 °F 88% 30.08 in 10.0 mi SW 3.5 mph - N/A Rain Rain
9:37 PM 73.4 °F 69.8 °F 88% 30.09 in 5.0 mi NW 4.6 mph - 0.03 in Rain Heavy Rain
9:56 PM 71.6 °F 69.8 °F 94% 30.08 in 7.0 mi SSW 4.6 mph - 0.04 in Rain Rain
10:17 PM 71.6 °F 69.8 °F 94% 30.09 in 10.0 mi SW 4.6 mph - N/A   Overcast
10:37 PM 71.6 °F 69.8 °F 94% 30.10 in 7.0 mi SSW 4.6 mph - 0.01 in Rain Rain
10:56 PM 71.6 °F 68.0 °F 88% 30.10 in 7.0 mi SW 6.9 mph - 0.03 in Rain Light Rain
11:17 PM 69.8 °F 68.0 °F 94% 30.10 in 5.0 mi SSE 4.6 mph - 0.03 in Rain Rain
11:37 PM 69.8 °F 66.2 °F 88% 30.09 in 10.0 mi SE 5.8 mph - 0.03 in   Light Drizzle
11:56 PM 69.8 °F 68.0 °F 94% 30.07 in 10.0 mi SSE 6.9 mph - 0.03 in Rain Light Rain